User: anonymous   Login
Location: Bothwell
(42.3833°S, 147.0000°E)
Time: 06:29:21
(UTC+10:00)
Language:

Gurwin Techsat 1B - Orbit

View from above orbital plane
View from above orbital plane
View from above satellite
View from above satellite

Ground track
Ground track

The orbit data is extracted from the following two-line orbital elements,

1 25397U 98043D   22267.44754264  .00000054  00000-0  43503-4 0  9993
2 25397  98.8271 218.2173 0001591 139.7900 220.3396 14.23772065257514
Epoch (UTC): 24 September 2022 10:44:27
Eccentricity: 0.0001591
inclination: 98.8271°
perigee height: 811 km
apogee height: 814 km
right ascension of ascending node: 218.2173°
argument of perigee: 139.7900°
revolutions per day: 14.23772065
mean anomaly at epoch: 220.3396°
orbit number at epoch: 25751

The dashed part of the orbit path shows where the satellite is in the earth's shadow,  

DLR